CHINASAT 12 (ZX 12) (39017 NORAD) Tracking and Keplerian Element Data

This shows tracking and keplerian element data for the satellite.

Feedback or suggestion? Click here.




ElementValue
Catalog39017
NameCHINASAT 12 (ZX 12)
Epoch Orbit4209
Epoch Day159.90522828
Epoch Year2024
RAAN99.6315
Inclination0.0458
Eccentricity0.0002786
Argument of Perigee333.4337
Mean Anonmoly237.0827
Mean Motion1.00271708
Decay Rate-2.07E-06
L11 39017U 12067A 24159.90522828 -.00000207 00000+0 00000+0 0 9991
L22 39017 0.0458 99.6315 0002786 333.4337 237.0827 1.00271708 42091



Live tracking and technical data element details for CHINASAT 12 (ZX 12) (NORAD 39017). CHINASAT 12 (ZX 12) can be tracked NOW for your location showing map with azimuth and elevation plus other details from your city location.







IsCatalogInMostPopularTable: catalog: 39017, numindb: 643
Update: records affected: 1



GetName: 39017 CHINASAT 12 (ZX 12)

Hit Count: updated at: Tue, 18 Jun 2024 00:14:30 GMT